KQ4UPF Weather Reports


time (UTC)temp
C
wind
direction
speed
KPH
gust
KPH
rain 1hr
cm
rain 24hr
cm
rain mn
cm
humidity
%
barometer
mb
20260504205127 25 247 3.2 9.7 0.00 0.00 0.00 39 1014.1
20260504204625 25 74 4.8 4.8 0.00 0.00 0.00 47 1014.2
20260504204124 25 134 1.6 11.3 0.00 0.00 0.00 42 1014.1
20260504203622 26 120 6.4 6.4 0.00 0.00 0.00 48 1014.0
20260504203119 26 103 0.0 4.8 0.00 0.00 0.00 42 1014.0
20260504202614 26 260 3.2 4.8 0.00 0.00 0.00 41 1014.1
20260504202111 26 82 6.4 9.7 0.00 0.00 0.00 43 1014.2
20260504201608 26 115 4.8 4.8 0.00 0.00 0.00 39 1014.3
20260504201106 26 177 3.2 3.2 0.00 0.00 0.00 45 1014.6
20260504200602 25 35 1.6 6.4 0.00 0.00 0.00 40 1014.6
20260504200059 26 125 12.9 14.5 0.00 0.00 0.00 40 1014.5
20260504195555 26 70 3.2 6.4 0.00 0.00 0.00 38 1014.4
20260504195051 25 84 1.6 9.7 0.00 0.00 0.00 41 1014.6
20260504194548 25 48 1.6 12.9 0.00 0.00 0.00 40 1014.5
20260504194044 26 142 14.5 22.5 0.00 0.00 0.00 43 1014.7
20260504193540 26 146 3.2 3.2 0.00 0.00 0.00 43 1014.8
20260504193039 26 140 4.8 9.7 0.00 0.00 0.00 41 1014.9
20260504192537 25 3 0.0 4.8 0.00 0.00 0.00 49 1015.0
20260504192035 25 66 4.8 9.7 0.00 0.00 0.00 44 1015.0
20260504191533 26 137 1.6 6.4 0.00 0.00 0.00 47 1015.1
20260504191029 25 94 1.6 3.2 0.00 0.00 0.00 46 1015.2
20260504190525 25 91 6.4 14.5 0.00 0.00 0.00 46 1015.2
20260504190021 26 24 9.7 11.3 0.00 0.00 0.00 43 1015.4
20260504185518 25 153 1.6 4.8 0.00 0.00 0.00 46 1015.3
20260504185015 25 352 1.6 9.7 0.00 0.00 0.00 41 1015.7
20260504184510 25 175 3.2 9.7 0.00 0.00 0.00 44 1015.4
20260504184006 25 115 6.4 9.7 0.00 0.00 0.00 48 1015.5
20260504183503 25 21 6.4 6.4 0.00 0.00 0.00 45 1015.5
20260504183001 25 328 1.6 4.8 0.00 0.00 0.00 44 1015.7
20260504182458 25 72 4.8 16.1 0.00 0.00 0.00 44 1015.6
20260504181955 25 67 4.8 6.4 0.00 0.00 0.00 46 1015.7
20260504181452 25 125 0.0 3.2 0.00 0.00 0.00 47 1016.0
20260504180950 24 38 3.2 9.7 0.00 0.00 0.00 49 1015.9
20260504180449 25 12 4.8 11.3 0.00 0.00 0.00 45 1016.0
20260504175947 25 146 1.6 1.6 0.00 0.00 0.00 47 1016.1
20260504175444 24 101 3.2 9.7 0.00 0.00 0.00 49 1016.1
20260504174941 24 173 8.0 14.5 0.00 0.00 0.00 51 1016.1
20260504174439 25 288 4.8 6.4 0.00 0.00 0.00 50 1016.3
20260504173936 25 331 3.2 4.8 0.00 0.00 0.00 53 1016.3
20260504173432 25 351 3.2 6.4 0.00 0.00 0.00 51 1016.4
20260504172930 25 105 3.2 3.2 0.00 0.00 0.00 51 1016.4
20260504172426 25 198 1.6 4.8 0.00 0.00 0.00 46 1016.5
20260504171922 25 313 3.2 4.8 0.00 0.00 0.00 45 1016.9
20260504171420 24 245 4.8 9.7 0.00 0.00 0.00 48 1016.7
20260504170916 23 352 0.0 3.2 0.00 0.00 0.00 45 1016.8
20260504170413 23 344 3.2 11.3 0.00 0.00 0.00 51 1016.7
20260504160332 22 14 6.4 11.3 0.00 0.00 0.00 49 1017.3
20260504150756 22 55 3.2 4.8 0.00 0.00 0.00 54 1017.6
20260504150253 22 92 3.2 9.7 0.00 0.00 0.00 44 1017.6
20260504141223 19 89 3.2 4.8 0.00 0.00 0.00 59 1018.2
20260504140720 20 74 1.6 4.8 0.00 0.00 0.00 52 1018.4
20260504140215 19 90 0.0 3.2 0.00 0.00 0.00 55 1018.3
20260504130643 16 143 0.0 3.2 0.00 0.00 0.00 71 1018.6
20260504130140 15 143 1.6 1.6 0.00 0.00 0.00 71 1018.5
20260504120104 9 219 0.0 1.6 0.00 0.00 0.00 96 1018.2
20260504110531 7 231 1.6 1.6 0.00 0.00 0.00 97 1017.9
20260504100454 7 233 0.0 1.6 0.00 0.00 0.00 96 1017.6
20260504081847 7 249 1.6 1.6 0.00 0.00 0.00 95 1017.5
20260504081343 7 249 1.6 1.6 0.00 0.00 0.00 94 1017.6
20260504080839 7 249 1.6 1.6 0.00 0.00 0.00 94 1017.6
20260504080337 7 249 3.2 3.2 0.00 0.00 0.00 95 1017.5
20260504070304 8 253 1.6 1.6 0.00 0.00 0.00 93 1018.1
20260504060224 7 292 1.6 1.6 0.00 0.00 0.00 93 1018.7
20260504050652 8 293 1.6 1.6 0.00 0.00 0.00 91 1018.8
20260504050149 8 293 0.0 0.0 0.00 0.00 0.00 91 1018.8
20260504045646 8 293 0.0 1.6 0.00 0.00 0.00 91 1018.7
20260504045146 8 292 1.6 1.6 0.00 0.00 0.00 90 1018.6
20260504044644 8 293 1.6 1.6 0.00 0.00 0.00 90 1018.6
20260504044141 8 293 1.6 1.6 0.00 0.00 0.00 89 1018.5
20260504043638 8 293 1.6 1.6 0.00 0.00 0.00 89 1018.8
20260504043135 8 293 0.0 0.0 0.00 0.00 0.00 88 1018.7
20260504042632 8 293 0.0 0.0 0.00 0.00 0.00 87 1018.8
20260504042129 8 292 1.6 1.6 0.00 0.00 0.00 88 1018.6
20260504041624 8 293 1.6 1.6 0.00 0.00 0.00 88 1018.8
20260504041121 8 293 0.0 1.6 0.00 0.00 0.00 87 1018.7
20260504040618 8 293 1.6 1.6 0.00 0.00 0.00 88 1018.9
20260504040115 8 293 0.0 1.6 0.00 0.00 0.00 87 1018.9
20260504035612 8 293 1.6 1.6 0.00 0.00 0.00 87 1019.2
20260504035108 8 293 1.6 1.6 0.00 0.00 0.00 87 1019.0
20260504034606 9 293 1.6 1.6 0.00 0.00 0.00 86 1019.0
20260504034103 9 319 3.2 3.2 0.00 0.00 0.00 87 1019.2
20260504033601 9 319 1.6 1.6 0.00 0.00 0.00 86 1019.1
20260504033058 9 319 1.6 1.6 0.00 0.00 0.00 86 1019.3
20260504032555 9 319 1.6 1.6 0.00 0.00 0.00 87 1019.4
20260504032052 9 319 1.6 1.6 0.00 0.00 0.00 87 1019.3
20260504031548 9 319 1.6 1.6 0.00 0.00 0.00 86 1019.4
20260504031044 9 319 0.0 0.0 0.00 0.00 0.00 86 1019.3
20260504030542 9 319 1.6 1.6 0.00 0.00 0.00 86 1019.6
20260504030038 10 319 0.0 1.6 0.00 0.00 0.00 84 1019.6
20260504025536 9 319 1.6 1.6 0.00 0.00 0.00 83 1019.4
20260504025032 9 319 1.6 1.6 0.00 0.00 0.00 85 1019.1
20260504024529 10 319 0.0 0.0 0.00 0.00 0.00 84 1019.3
20260504024026 10 319 0.0 0.0 0.00 0.00 0.00 84 1019.4
20260504023522 10 319 0.0 1.6 0.00 0.00 0.00 82 1019.1
20260504023018 10 319 1.6 1.6 0.00 0.00 0.00 84 1019.1
20260504022514 10 319 0.0 0.0 0.00 0.00 0.00 83 1018.9
20260504022011 10 319 0.0 1.6 0.00 0.00 0.00 82 1018.8
20260504021509 10 319 0.0 1.6 0.00 0.00 0.00 82 1018.9
20260504021006 10 319 1.6 1.6 0.00 0.00 0.00 83 1018.8
20260504020502 10 319 1.6 1.6 0.00 0.00 0.00 81 1018.6
20260504015959 10 319 0.0 0.0 0.00 0.00 0.00 82 1018.6
20260504015455 11 319 0.0 0.0 0.00 0.00 0.00 82 1018.8
20260504014951 11 318 1.6 1.6 0.00 0.00 0.00 80 1018.6
20260504014447 11 321 1.6 1.6 0.00 0.00 0.00 79 1018.7
20260504013944 11 322 1.6 1.6 0.00 0.00 0.00 80 1018.5
20260504013443 11 322 1.6 1.6 0.00 0.00 0.00 78 1018.4
20260504012938 11 326 0.0 0.0 0.00 0.00 0.00 79 1018.4
20260504012437 12 326 0.0 1.6 0.00 0.00 0.00 79 1018.6
20260504011934 12 326 1.6 1.6 0.00 0.00 0.00 78 1018.3
20260504011430 12 326 1.6 1.6 0.00 0.00 0.00 77 1018.3
20260504010926 12 326 1.6 1.6 0.00 0.00 0.00 75 1018.4
20260504010422 12 326 1.6 1.6 0.00 0.00 0.00 77 1018.4
20260504005919 12 326 1.6 1.6 0.00 0.00 0.00 79 1018.3
20260504005415 12 326 0.0 0.0 0.00 0.00 0.00 78 1018.3
20260504004913 12 326 0.0 0.0 0.00 0.00 0.00 76 1018.4
20260504004411 12 326 0.0 1.6 0.00 0.00 0.00 77 1018.3
20260504003908 12 326 1.6 1.6 0.00 0.00 0.00 77 1018.3
20260504003404 12 326 0.0 0.0 0.00 0.00 0.00 75 1018.4
20260504002900 13 326 0.0 0.0 0.00 0.00 0.00 72 1018.3
20260504002357 13 326 0.0 0.0 0.00 0.00 0.00 73 1018.3
20260504001855 13 326 1.6 1.6 0.00 0.00 0.00 70 1018.5
20260504001352 13 326 0.0 0.0 0.00 0.00 0.00 67 1018.3
20260504000849 14 326 0.0 0.0 0.00 0.00 0.00 62 1018.2
20260504000346 15 326 0.0 0.0 0.00 0.00 0.00 61 1018.3
20260503235844 15 326 0.0 0.0 0.00 0.00 0.00 61 1018.1
20260503235341 15 326 0.0 0.0 0.00 0.00 0.00 59 1018.1
20260503234838 16 326 0.0 0.0 0.00 0.00 0.00 59 1018.1
20260503234336 16 326 0.0 0.0 0.00 0.00 0.00 55 1018.2
20260503233833 16 326 0.0 0.0 0.00 0.00 0.00 54 1018.2
20260503233329 16 326 1.6 1.6 0.00 0.00 0.00 55 1018.2
20260503232826 16 326 1.6 1.6 0.00 0.00 0.00 51 1018.2
20260503232323 17 326 1.6 3.2 0.00 0.00 0.00 53 1018.3
20260503231821 17 286 1.6 1.6 0.00 0.00 0.00 51 1018.3
20260503231318 17 286 1.6 3.2 0.00 0.00 0.00 51 1018.4
20260503230814 17 287 0.0 1.6 0.00 0.00 0.00 51 1018.3
20260503230311 18 287 1.6 1.6 0.00 0.00 0.00 49 1018.3
20260503225809 18 308 1.6 4.8 0.00 0.00 0.00 47 1018.3
20260503225304 19 31 3.2 4.8 0.00 0.00 0.00 44 1018.5
20260503224801 20 22 1.6 1.6 0.00 0.00 0.00 47 1018.4
20260503224258 20 23 1.6 1.6 0.00 0.00 0.00 49 1018.3
20260503223756 20 25 1.6 3.2 0.00 0.00 0.00 47 1018.3
20260503223253 20 358 3.2 6.4 0.00 0.00 0.00 43 1018.4
20260503222749 20 348 4.8 11.3 0.00 0.00 0.00 41 1018.4
20260503222247 20 323 6.4 6.4 0.00 0.00 0.00 42 1018.4
20260503221746 20 342 4.8 11.3 0.00 0.00 0.00 40 1018.5
20260503221243 20 328 3.2 4.8 0.00 0.00 0.00 41 1018.6
20260503220739 20 290 4.8 6.4 0.00 0.00 0.00 41 1018.6
20260503220236 20 35 4.8 6.4 0.00 0.00 0.00 39 1018.5
20260503215733 20 359 3.2 9.7 0.00 0.00 0.00 41 1018.8
20260503215230 21 349 3.2 4.8 0.00 0.00 0.00 39 1018.8
20260503214728 20 312 0.0 4.8 0.00 0.00 0.00 42 1018.6
20260503214225 20 328 1.6 9.7 0.00 0.00 0.00 40 1018.8
20260503213723 20 344 1.6 6.4 0.00 0.00 0.00 40 1018.8
20260503213220 21 277 6.4 9.7 0.00 0.00 0.00 38 1018.8
20260503212716 20 309 4.8 4.8 0.00 0.00 0.00 42 1018.9
20260503212214 20 16 6.4 11.3 0.00 0.00 0.00 38 1018.9
20260503211712 20 343 4.8 11.3 0.00 0.00 0.00 40 1019.0
20260503211208 20 329 4.8 11.3 0.00 0.00 0.00 43 1019.2
20260503210704 21 3 3.2 6.4 0.00 0.00 0.00 40 1019.1
20260503210201 21 95 0.0 4.8 0.00 0.00 0.00 42 1019.2
20260503205655 20 315 3.2 9.7 0.00 0.00 0.00 36 1019.2